Wind_Speed
21 21 20 20 19 19 19 19 19 19 19 20 20 20 21 21 20 20 19 19 19 19 18 18 17 17 17 17 17 17 17 16 15 15 14 13 13 13 13 14 14 13 13 13
21 21 21 21 20 19 19 19 19 20 20 20 20 21 21 21 20 20 20 20 20 19 18 18 18 17 16 17 18 18 18 17 16 16 15 15 15 15 15 14 14 14 14 14
21 20 21 21 20 19 19 19 20 20 21 21 21 21 21 20 20 21 20 19 19 19 19 19 18 18 17 16 17 17 18 16 16 16 16 16 16 16 15 15 14 15 15 15
20 21 21 20 20 19 19 20 20 20 21 21 21 21 21 20 20 20 20 19 19 19 19 18 18 18 18 16 16 16 15 15 14 15 17 17 17 16 16 15 16 16 16 16
20 21 21 21 20 20 20 20 20 21 21 21 21 22 22 21 20 20 19 19 20 20 20 19 19 18 18 17 16 15 14 14 14 15 16 17 17 17 17 17 17 17 17 17
21 21 21 21 20 21 20 20 21 21 21 22 20 21 20 21 19 18 18 19 20 20 20 20 20 19 19 18 16 15 14 14 14 15 16 17 16 17 18 17 17 17 18 18
21 21 21 21 21 21 21 20 19 19 21 21 20 21 20 19 18 18 18 18 18 19 20 20 19 20 19 18 18 16 16 16 15 15 16 17 17 17 17 17 18 17 18 18
21 22 22 21 21 22 22 21 20 20 20 20 21 20 19 18 18 18 18 17 17 18 19 19 19 19 19 18 18 17 17 17 16 16 16 16 17 17 17 17 17 17 17 17
20 21 22 23 23 23 23 23 21 21 20 20 20 20 19 17 18 18 17 18 18 18 18 18 19 19 19 19 19 18 18 18 18 17 16 15 16 17 17 16 16 16 16 16
20 21 21 22 23 24 24 23 22 22 21 21 20 20 19 17 17 16 17 17 19 19 19 20 20 20 20 20 20 20 19 19 18 17 17 17 16 16 17 16 16 16 16 16
20 20 21 22 23 23 23 24 24 23 22 21 20 19 19 18 17 17 18 18 19 20 20 19 19 20 21 21 21 20 20 20 19 18 18 17 18 17 18 17 17 17 16 16
20 20 21 21 22 22 23 24 23 23 22 22 21 22 19 19 18 18 18 18 18 19 19 19 19 20 20 21 20 20 20 20 20 19 19 19 19 19 18 18 18 17 16 15
21 21 21 21 22 23 23 23 23 23 23 22 22 22 20 18 18 18 19 19 18 19 19 19 19 19 20 20 20 20 20 21 20 20 20 20 20 20 20 19 18 17 17 17
22 22 21 20 21 23 24 24 24 25 24 23 22 22 21 19 19 19 19 19 19 19 19 19 20 20 20 21 20 20 21 21 21 21 21 21 21 20 20 19 19 18 18 18
23 23 23 22 22 23 23 24 24 25 24 24 23 23 21 20 19 19 19 19 19 19 20 21 21 21 21 22 22 22 21 21 21 21 21 21 21 21 20 20 20 19 20 20
23 23 23 23 23 24 23 23 24 24 25 25 24 22 21 20 20 20 20 20 20 20 21 21 22 22 22 22 22 22 21 21 21 21 21 21 21 21 21 21 20 20 21 21
24 23 23 22 23 23 24 23 24 24 25 24 23 22 21 20 20 20 20 20 21 22 22 22 23 22 22 22 22 23 22 22 22 21 21 22 22 22 22 21 21 21 22 22
24 24 23 23 23 24 24 24 24 24 24 24 24 22 21 20 20 20 20 20 21 22 22 22 22 22 22 22 22 22 22 22 22 22 23 23 23 23 23 22 22 22 22 22
23 24 24 24 24 25 25 24 23 23 23 23 23 22 21 20 20 21 21 21 21 22 22 22 22 22 22 22 22 22 23 22 22 22 22 23 23 23 22 22 22 22 22 22
24 24 25 25 25 24 25 23 22 22 23 22 22 22 21 21 21 21 21 21 21 21 21 22 22 23 22 21 22 22 23 23 23 23 23 23 23 22 23 23 22 22 22 22
23 25 26 26 25 25 24 23 22 22 23 22 22 22 22 20 21 21 21 21 21 22 22 21 22 21 21 21 22 22 23 23 23 23 23 23 23 23 23 23 22 22 23 23
24 25 25 25 24 25 24 23 23 23 23 22 22 22 21 21 21 21 21 22 22 22 22 21 21 21 21 21 22 23 22 22 22 22 22 23 23 24 24 23 23 24 23 24
24 25 25 27 27 25 25 24 23 23 23 22 22 21 20 21 21 22 22 23 22 22 22 22 22 22 21 21 22 22 22 22 22 22 23 24 25 25 24 24 24 24 24 24
23 23 24 25 26 25 24 24 24 23 22 21 21 21 20 21 21 22 22 22 22 22 22 22 22 22 21 21 22 22 22 22 22 23 23 23 23 24 24 24 24 24 23 23
21 22 22 24 25 24 24 24 24 23 23 22 22 20 20 20 21 21 22 22 22 23 23 23 22 22 22 22 22 22 21 21 22 22 22 22 22 22 22 22 23 23 24 24
19 21 22 23 24 24 24 24 24 24 23 23 23 22 22 21 21 22 22 22 22 22 23 23 23 22 22 22 22 22 22 22 22 21 21 22 22 23 23 24 24 24 24 23
Wind_Direction
244 245 245 248 249 250 252 252 253 254 254 255 257 258 261 261 260 260 262 263 265 268 271 271 273 274 275 275 275 273 273 274 273 272 273 275 278 276 274 276 280 281 279 278
244 246 247 247 248 249 248 250 252 253 255 256 260 261 260 261 261 262 265 264 263 265 267 266 269 272 275 274 275 272 272 272 271 271 270 272 277 274 273 276 281 282 281 280
244 245 246 247 248 248 248 249 251 254 258 261 264 264 261 262 262 262 264 264 263 264 264 263 265 269 271 275 274 273 274 272 270 270 271 273 274 274 276 276 279 282 284 281
244 243 243 244 246 247 248 249 251 254 259 263 265 269 264 263 264 262 263 264 263 262 262 260 261 264 268 272 273 274 271 267 269 271 272 274 274 274 275 276 280 283 283 281
249 245 243 241 243 245 245 247 251 256 261 264 266 267 267 265 264 263 262 261 260 260 261 261 260 261 264 269 270 267 265 265 268 272 275 275 274 273 274 275 280 283 281 279
249 249 246 242 241 242 244 249 254 259 263 265 266 267 268 266 266 264 260 259 259 260 260 260 259 261 263 265 266 263 262 265 267 272 275 277 276 274 274 273 277 280 280 277
250 250 247 244 240 242 244 247 254 258 262 266 267 265 267 268 264 260 259 259 257 258 259 258 258 259 260 262 264 261 260 261 266 271 274 276 274 272 273 275 278 279 280 280
251 249 247 243 242 243 245 246 250 257 262 266 267 267 269 269 262 260 258 255 256 257 258 257 256 257 258 261 262 260 259 261 266 270 274 275 273 271 273 276 279 279 279 282
249 247 247 245 242 243 245 246 249 256 264 269 268 268 273 271 265 260 257 255 254 255 258 258 255 255 257 258 259 260 260 262 265 268 268 272 273 273 274 275 280 281 282 284
248 247 247 246 245 245 245 248 250 254 261 266 268 269 270 272 268 262 258 255 253 254 257 257 255 255 257 259 259 259 261 263 265 267 269 270 272 277 275 276 279 282 283 281
246 248 247 245 243 245 246 246 248 253 257 263 268 267 265 270 272 264 258 254 253 254 256 257 255 255 258 259 259 261 261 264 266 269 269 270 273 276 275 274 276 280 282 284
247 248 247 246 244 245 247 247 249 251 256 261 268 270 268 270 267 261 258 257 255 253 256 257 258 257 259 260 261 262 263 266 267 268 268 269 271 274 275 274 277 278 280 284
246 245 246 246 247 245 245 244 246 250 255 260 265 271 269 267 263 259 258 257 254 254 257 258 260 260 261 261 261 263 266 266 265 266 267 267 270 271 271 272 274 275 277 281
246 244 243 245 246 248 248 248 248 250 254 259 263 268 267 265 259 257 258 257 254 256 258 260 262 262 261 261 262 264 265 265 266 267 269 269 270 270 272 270 271 274 276 279
246 245 244 245 247 249 250 250 250 252 254 258 262 264 264 262 257 255 255 255 256 256 259 262 263 263 262 261 262 265 266 266 267 268 268 268 269 271 271 270 271 274 277 279
246 245 245 246 247 250 251 250 251 252 254 257 261 262 260 258 255 254 254 257 257 257 260 262 263 263 262 263 263 264 265 265 265 267 268 268 269 271 271 270 271 274 277 278
246 242 242 244 246 248 249 250 251 253 254 255 259 262 260 258 258 256 257 258 259 259 261 263 266 265 265 264 263 263 263 264 263 264 264 268 269 269 268 268 270 272 275 276
245 242 243 245 246 249 250 250 252 252 253 254 257 257 257 256 256 257 258 258 260 262 262 263 265 266 266 265 262 261 261 262 263 264 265 268 269 268 267 268 270 271 273 275
244 242 243 245 248 251 253 252 252 252 252 254 255 254 256 255 255 256 256 259 260 262 263 264 264 267 267 263 261 260 260 261 263 266 268 268 267 266 268 269 272 273 274 275
244 243 243 245 248 250 250 251 251 252 253 253 253 252 254 253 256 256 256 257 258 260 263 264 264 268 266 262 259 258 258 260 262 265 267 266 266 267 268 270 273 275 275 276
246 244 244 245 246 247 250 251 251 251 252 253 253 252 254 255 257 256 256 257 258 260 263 264 266 268 266 262 258 257 259 259 261 264 266 267 266 267 269 271 274 276 278 277
245 244 244 244 245 247 248 251 252 253 255 255 254 255 256 255 256 256 257 256 257 259 262 264 265 266 266 263 259 259 260 262 263 263 263 264 265 265 267 271 273 275 277 277
244 244 245 245 247 249 247 250 253 253 254 253 254 255 253 253 255 255 256 256 257 258 261 264 265 266 267 263 261 260 261 264 264 264 265 265 267 267 268 270 273 275 278 279
245 245 246 247 248 248 247 250 251 251 252 254 252 253 254 256 256 256 256 257 257 258 261 265 267 265 265 265 265 264 262 261 263 265 266 268 269 270 271 271 272 273 277 279
246 244 245 246 247 248 247 248 250 250 250 252 252 254 256 257 258 258 259 258 258 259 262 264 265 265 266 264 267 265 263 264 267 267 267 270 271 272 273 272 274 274 274 278
246 245 245 245 247 248 248 248 248 250 251 252 252 252 256 259 259 257 256 258 260 261 262 261 264 268 267 265 264 262 261 262 264 266 268 270 271 273 274 273 273 275 276 277
Height
5841 5844 5846 5848 5849 5851 5852 5853 5854 5855 5855 5856 5856 5857 5858 5857 5858 5858 5858 5858 5858 5859 5859 5859 5859 5859 5858 5858 5858 5857 5857 5856 5856 5855 5855 5854 5853 5853 5852 5851 5850 5849 5848 5847
5837 5839 5842 5843 5844 5845 5847 5848 5849 5850 5850 5851 5851 5852 5853 5852 5853 5853 5853 5853 5854 5854 5854 5855 5855 5855 5854 5854 5853 5853 5853 5853 5852 5852 5852 5851 5850 5849 5848 5847 5847 5846 5845 5844
5833 5836 5836 5837 5839 5841 5842 5844 5845 5846 5846 5846 5847 5847 5848 5848 5848 5848 5848 5848 5849 5849 5850 5850 5850 5850 5850 5850 5849 5849 5849 5848 5848 5848 5848 5847 5847 5846 5845 5844 5843 5842 5841 5840
5827 5829 5831 5832 5834 5836 5838 5839 5840 5840 5841 5842 5842 5842 5843 5843 5843 5843 5843 5844 5844 5845 5845 5846 5846 5846 5846 5846 5845 5845 5844 5845 5845 5845 5844 5844 5843 5842 5842 5840 5839 5838 5837 5836
5823 5824 5826 5828 5830 5831 5833 5834 5835 5835 5836 5837 5837 5837 5838 5837 5838 5838 5839 5839 5839 5840 5841 5841 5842 5842 5842 5842 5842 5841 5841 5841 5841 5841 5840 5839 5839 5838 5837 5836 5835 5834 5833 5832
5818 5819 5820 5822 5824 5826 5827 5829 5830 5830 5831 5832 5832 5832 5833 5832 5833 5833 5833 5834 5834 5835 5836 5836 5837 5837 5838 5838 5838 5838 5838 5838 5838 5837 5837 5836 5834 5834 5833 5832 5831 5830 5829 5828
5813 5813 5815 5817 5819 5821 5823 5825 5826 5827 5827 5828 5827 5826 5827 5827 5827 5827 5828 5829 5829 5830 5830 5831 5832 5832 5833 5834 5834 5834 5834 5834 5834 5834 5833 5832 5830 5830 5829 5828 5827 5825 5824 5823
5808 5809 5810 5812 5814 5816 5817 5820 5822 5823 5824 5823 5822 5821 5822 5822 5822 5822 5823 5823 5824 5825 5825 5826 5826 5827 5828 5829 5829 5830 5830 5830 5830 5829 5829 5828 5826 5825 5824 5823 5822 5821 5820 5819
5803 5805 5805 5807 5809 5811 5812 5814 5816 5817 5817 5818 5817 5817 5817 5817 5817 5817 5818 5819 5819 5820 5820 5821 5822 5822 5823 5824 5825 5825 5825 5825 5825 5824 5824 5823 5822 5821 5820 5819 5818 5817 5816 5814
5796 5798 5800 5801 5803 5804 5807 5809 5810 5811 5812 5812 5813 5812 5812 5812 5812 5812 5813 5813 5814 5815 5815 5815 5816 5817 5818 5819 5819 5820 5820 5819 5819 5819 5819 5818 5817 5816 5815 5815 5814 5813 5811 5810
5790 5793 5794 5796 5797 5799 5801 5803 5804 5806 5807 5807 5808 5810 5807 5807 5807 5807 5808 5808 5809 5809 5810 5810 5811 5812 5812 5813 5813 5814 5814 5814 5814 5814 5813 5813 5812 5811 5810 5809 5809 5808 5807 5806
5785 5787 5788 5791 5793 5794 5796 5797 5799 5801 5801 5801 5802 5805 5802 5802 5802 5802 5802 5802 5803 5804 5804 5805 5805 5806 5807 5807 5807 5808 5808 5808 5808 5808 5808 5808 5807 5806 5805 5805 5804 5803 5803 5801
5779 5781 5783 5785 5788 5789 5789 5791 5793 5794 5795 5796 5796 5799 5796 5796 5796 5797 5797 5797 5797 5799 5799 5800 5800 5800 5801 5801 5802 5802 5802 5802 5802 5802 5802 5802 5802 5801 5801 5800 5799 5799 5798 5797
5773 5775 5778 5781 5782 5783 5784 5785 5787 5788 5789 5790 5791 5791 5791 5791 5791 5791 5792 5792 5792 5793 5794 5795 5795 5795 5796 5796 5796 5796 5796 5796 5796 5796 5796 5796 5796 5796 5795 5795 5794 5794 5793 5792
5766 5769 5771 5774 5775 5776 5778 5779 5781 5782 5783 5784 5785 5785 5785 5785 5786 5786 5786 5787 5788 5788 5789 5790 5790 5790 5790 5790 5790 5790 5790 5790 5790 5790 5790 5790 5790 5790 5790 5790 5789 5789 5788 5787
5759 5762 5764 5767 5768 5769 5771 5773 5774 5775 5777 5777 5778 5779 5779 5779 5780 5780 5781 5782 5782 5783 5783 5784 5784 5784 5783 5783 5784 5784 5784 5784 5784 5784 5784 5784 5784 5784 5784 5784 5783 5783 5782 5781
5753 5755 5758 5760 5762 5762 5764 5766 5767 5769 5770 5771 5771 5773 5773 5774 5774 5775 5775 5776 5777 5777 5777 5778 5777 5777 5776 5776 5777 5777 5777 5778 5778 5778 5778 5778 5778 5778 5778 5777 5777 5777 5776 5775
5747 5749 5751 5753 5755 5756 5760 5760 5761 5762 5763 5764 5765 5766 5766 5767 5768 5769 5769 5770 5771 5771 5771 5771 5771 5770 5769 5769 5769 5770 5770 5771 5771 5771 5772 5772 5772 5771 5771 5771 5771 5770 5769 5768
5740 5742 5744 5746 5748 5749 5751 5752 5754 5755 5756 5757 5758 5760 5760 5761 5762 5763 5763 5764 5764 5765 5765 5764 5764 5764 5763 5762 5762 5763 5763 5764 5765 5765 5765 5765 5765 5764 5765 5764 5764 5763 5763 5762
5734 5736 5738 5739 5741 5742 5744 5745 5746 5749 5749 5751 5752 5753 5754 5755 5756 5757 5757 5758 5758 5758 5758 5758 5758 5757 5756 5756 5756 5756 5757 5758 5758 5758 5758 5758 5758 5758 5758 5758 5757 5756 5756 5755
5727 5729 5730 5732 5733 5735 5736 5738 5740 5743 5744 5745 5745 5747 5748 5748 5749 5750 5750 5751 5751 5752 5752 5752 5751 5750 5750 5750 5750 5750 5750 5751 5751 5752 5752 5751 5751 5751 5751 5751 5750 5750 5749 5748
5720 5721 5723 5725 5727 5730 5730 5731 5733 5735 5736 5737 5739 5740 5741 5742 5743 5743 5744 5744 5745 5745 5745 5745 5745 5744 5744 5744 5744 5744 5744 5745 5745 5745 5745 5745 5745 5744 5744 5744 5743 5743 5742 5741
5712 5714 5715 5718 5720 5721 5723 5724 5726 5727 5729 5730 5732 5733 5734 5735 5736 5737 5737 5738 5738 5739 5739 5738 5738 5738 5738 5738 5738 5738 5738 5738 5738 5738 5738 5738 5738 5738 5737 5737 5736 5736 5735 5734
5705 5706 5708 5710 5711 5713 5715 5717 5719 5720 5722 5723 5724 5726 5727 5728 5729 5729 5730 5731 5731 5731 5732 5732 5732 5732 5732 5731 5732 5732 5732 5732 5732 5732 5732 5732 5731 5731 5730 5730 5729 5729 5728 5727
5698 5699 5701 5703 5705 5706 5708 5710 5712 5713 5715 5716 5718 5719 5720 5721 5722 5722 5723 5724 5724 5724 5725 5725 5725 5725 5725 5725 5725 5725 5726 5726 5726 5726 5725 5725 5725 5724 5724 5723 5722 5722 5721 5720
5691 5693 5694 5696 5698 5700 5701 5703 5704 5706 5708 5709 5711 5712 5713 5714 5715 5715 5716 5716 5717 5717 5718 5718 5718 5718 5718 5718 5719 5719 5719 5720 5720 5720 5719 5719 5718 5718 5717 5716 5715 5714 5713 5712